TimeMDT,TemperatureF,Dew PointF,Humidity,Sea Level PressureIn,VisibilityMPH,Wind Direction,Wind SpeedMPH,Gust SpeedMPH,PrecipitationIn,Events,Conditions,WindDirDegrees,DateUTC
12:53 AM,75.0,41.0,29,29.64,10.0,East,4.6,-,N/A,,Clear,80,2013-07-05 06:53:00
1:53 AM,79.0,45.0,30,29.64,10.0,ENE,12.7,-,N/A,,Clear,60,2013-07-05 07:53:00
2:53 AM,75.0,46.9,37,29.66,10.0,West,4.6,-,N/A,,Clear,260,2013-07-05 08:53:00
3:53 AM,70.0,45.0,41,29.67,10.0,Calm,Calm,-,N/A,,Clear,0,2013-07-05 09:53:00
4:53 AM,70.0,46.0,42,29.67,10.0,East,4.6,-,N/A,,Clear,90,2013-07-05 10:53:00
5:53 AM,71.6,46.4,41,29.69,10.0,Calm,Calm,-,N/A,,Mostly Cloudy,0,2013-07-05 11:53:00
6:53 AM,72.0,48.0,43,29.71,10.0,WSW,4.6,-,N/A,,Clear,240,2013-07-05 12:53:00
7:53 AM,71.1,50.0,47,29.71,10.0,South,8.1,-,N/A,,Partly Cloudy,170,2013-07-05 13:53:00
8:53 AM,78.1,51.1,39,29.71,10.0,West,5.8,-,N/A,,Clear,270,2013-07-05 14:53:00
9:53 AM,81.0,51.1,35,29.71,10.0,South,3.5,-,N/A,,Clear,170,2013-07-05 15:53:00
10:53 AM,84.9,46.9,27,29.70,10.0,NE,4.6,-,N/A,,Clear,40,2013-07-05 16:53:00
11:53 AM,87.1,48.9,27,29.70,10.0,NW,5.8,-,N/A,,Clear,310,2013-07-05 17:53:00
12:53 PM,89.1,46.9,23,29.68,10.0,Variable,6.9,-,N/A,,Clear,0,2013-07-05 18:53:00
1:53 PM,90.0,45.0,21,29.65,10.0,Variable,6.9,-,N/A,,Clear,0,2013-07-05 19:53:00
2:53 PM,93.9,44.1,18,29.62,10.0,WNW,11.5,18.4,N/A,,Clear,290,2013-07-05 20:53:00
3:53 PM,95.0,41.0,15,29.59,10.0,NNW,11.5,20.7,N/A,,Clear,330,2013-07-05 21:53:00
4:53 PM,95.0,39.9,15,29.57,10.0,NNW,8.1,-,N/A,,Clear,340,2013-07-05 22:53:00
5:53 PM,95.0,39.0,14,29.55,10.0,Variable,5.8,19.6,N/A,,Clear,0,2013-07-05 23:53:00
6:53 PM,93.0,39.0,15,29.55,10.0,West,3.5,-,N/A,,Clear,260,2013-07-06 00:53:00
7:53 PM,90.0,42.1,19,29.56,10.0,WSW,6.9,-,N/A,,Clear,240,2013-07-06 01:53:00
8:53 PM,86.0,42.1,21,29.57,10.0,Calm,Calm,-,N/A,,Clear,0,2013-07-06 02:53:00
9:53 PM,84.9,39.9,20,29.61,10.0,WNW,8.1,-,N/A,,Partly Cloudy,300,2013-07-06 03:53:00
10:53 PM,84.0,41.0,22,29.63,10.0,WNW,11.5,-,N/A,,Clear,300,2013-07-06 04:53:00
11:53 PM,81.0,41.0,24,29.69,10.0,WNW,23.0,-,N/A,,Clear,300,2013-07-06 05:53:00